カタログに戻る

THORAD AGENA D DEB

運用中LEO
NORAD 4679·DEBRIS·🇺🇸 United States

打ち上げ Apr 8, 1970 から Vandenberg Space Force Base

Loading…

次のパス (今後24時間)

TLE

最新Source: Space-Track

元期: Sep 14, 2026, 09:11 UTC

1 04679U 70025BC  26257.38302236  .00000257  00000-0  35656-3 0  9991
2 04679 100.1925  83.2144 0017387 338.2576 140.0272 13.68732620802428

AllMySatでTHORAD AGENA D DEBをリアルタイム追跡

Download on the App Store